Location: Observatoire
(46.1952°N, 5.3391°E)
Time: 23:17:55
(UTC+01:00)

Courier 1B Rocket - Pass Details

Date: 19 February 2026
Orbit: 920 x 1201 km, 28.2° (Epoch: 11 March)

Event Time Altitude Azimuth Distance (km) Brightness Sun altitude
Rises 21:34:08 0° 238° (WSW) 3,562 8.4 -35.4°
Enters shadow 21:37:53 10° 216° (SW) 2,658 7.4 -36.0°
Reaches altitude 10° 21:37:57 10° 216° (SW) 2,647 - -36.0°
Maximum altitude 21:41:18 15° 183° (S) 2,349 - -36.5°
Drops below altitude 10° 21:44:44 10° 151° (SSE) 2,724 - -37.0°
Sets 21:48:46 0° 129° (SE) 3,732 - -37.7°
